[[{"header":{"parameterUnit":"m.s-1","parameterCategory":1,"la1":30.2991,"la2":30.254,"lo1":-89.0895,"lo2":-89.0444,"dy":0.0017,"dx":0.0017,"nx":28,"ny":28,"refTime":"2026-01-11T03:00:00:Z","depth":0,"parameterNumber":2,"parameterNumberName":"U-component_of_WINDS"},"data":[0,0,0,0,0,0,0,0,0,0,0,0,0,0,0,0,0,0,0,0,0,0,0,0,0,0,0,0,0,0,0,0,0,0,0,0,0,0,0,0,0,0,0,0,0,0,0,0,0,0,0,0,0,0,0,0,0,0,1.3169,1.317,0,1.3235,1.3236,1.3237,1.3239,1.3238,1.3238,1.3237,1.331,1.3313,1.3315,0,0,0,0,0,0,0,0,0,0,0,0,0,1.305,1.3053,1.3169,1.317,1.3171,1.3235,1.3236,1.3237,1.3239,1.3238,1.3237,1.3236,1.3309,1.3312,1.3316,0,0,0,0,0,0,0,0,0,0,0,0,0,1.3108,1.3053,1.3169,1.318,1.3181,1.3235,1.3236,1.3237,1.324,1.3238,1.3237,1.3236,1.3308,1.3312,1.3316,1.3366,0,0,1.3329,1.333,0,0,0,0,0,0,0,0,1.3105,1.3112,1.3177,1.3179,1.3181,1.3228,1.3221,1.3281,1.324,1.3218,1.3237,1.3235,1.3284,1.329,1.3305,1.3369,1.3372,1.3329,1.3331,1.3333,1.3334,0,0,0,0,0,0,0,1.3101,1.311,1.3196,1.3178,1.318,1.3183,1.319,1.3232,1.3257,1.3219,1.322,1.3227,1.3285,1.3301,1.3307,1.3373,1.3329,1.3332,1.3335,1.3337,1.3483,1.3484,0,0,0,0,0,0,1.3094,1.3106,1.3193,1.3198,1.3139,1.3186,1.3194,1.3214,1.3257,1.3262,1.3228,1.3227,1.3295,1.3302,1.331,1.3371,1.3333,1.3337,1.3339,1.3481,1.3483,1.3484,0,0,0,0,0,0,1.3091,1.3102,1.3191,1.3152,1.3163,1.3189,1.3212,1.3216,1.3232,1.3263,1.3268,1.324,1.3294,1.3304,1.3352,1.3374,1.3339,1.3342,1.3479,1.3482,1.3484,1.3494,0,0,0,0,0,0,1.3088,1.3101,1.3118,1.3152,1.3165,1.323,1.3213,1.3218,1.3239,1.3238,1.3276,1.3281,1.3294,1.3345,1.3356,1.3379,1.3346,1.3478,1.348,1.3483,1.3492,1.3496,1.35,0,0,0,0,0,1.3084,1.312,1.3119,1.313,1.3188,1.3231,1.3239,1.3252,1.324,1.3259,1.3279,1.328,1.3369,1.335,1.3362,1.3386,1.3476,1.348,1.3483,1.349,1.3495,1.35,0,0,0,0,0,0,1.309,1.3124,1.3124,1.3172,1.3198,1.3231,1.3256,1.3257,1.3289,1.3287,1.3303,1.3312,1.336,1.3378,1.3356,1.3437,1.3422,1.3428,1.3423,1.3429,1.3433,1.3428,1.3349,0,0,0,0,0,1.3096,1.3126,1.3156,1.3195,1.3208,1.323,1.3249,1.3257,1.3285,1.3297,1.3321,1.335,1.3385,1.3408,1.3442,1.3494,1.3504,1.3517,1.3521,1.3524,1.3529,1.356,1.3567,1.3495,1.3495,1.3495,0,0,1.3111,1.3133,1.3152,1.3197,1.3218,1.3251,1.3239,1.3274,1.33,1.3303,1.3349,1.3368,1.3402,1.3452,1.3476,1.3469,1.3551,1.3529,1.3531,1.3534,1.3564,1.3571,1.3577,1.3497,1.3497,1.3496,0,0,1.3154,1.3173,1.3209,1.323,1.3262,1.3276,1.3284,1.3317,1.3329,1.3375,1.3379,1.341,1.3469,1.3494,1.3514,1.3567,1.3569,1.3578,1.36,1.3629,1.3635,1.364,1.3659,1.3666,1.3582,1.3582,1.3582,0,1.3168,1.3216,1.3227,1.3262,1.3283,1.3286,1.3323,1.3343,1.3386,1.3401,1.3392,1.3467,1.349,1.3547,1.356,1.3576,1.3587,1.3574,1.3632,1.3638,1.3643,1.3662,1.3669,1.3583,1.3583,1.3583,1.3583,0,1.3233,1.3266,1.3291,1.333,1.3353,1.3389,1.3407,1.343,1.3436,1.3451,1.3499,1.3527,1.3567,1.3581,1.3587,1.3639,1.3634,1.3629,1.3614,1.365,1.3669,1.3676,1.3585,1.3584,1.3584,1.3584,0,0,1.3282,1.3326,1.3335,1.3353,1.3389,1.3416,1.3452,1.349,1.3509,1.3539,1.3571,1.3621,1.3617,1.364,1.3649,1.3675,1.3716,1.3667,1.3668,1.3676,1.3776,1.378,1.3788,1.3717,1.3719,1.372,1.3773,0,1.333,1.3393,1.3404,1.3461,1.3493,1.3496,1.3528,1.3555,1.357,1.3601,1.3619,1.3655,1.3645,1.3659,1.3685,1.3705,1.3737,1.3702,1.3749,1.3751,1.3741,1.3798,1.3802,1.3851,1.378,1.3782,1.3783,0,1.3394,1.3423,1.3482,1.3514,1.3528,1.3556,1.3592,1.362,1.3651,1.3661,1.3686,1.3692,1.3733,1.3715,1.3772,1.3748,1.3768,1.3782,1.3784,1.379,1.3769,1.3806,1.3867,1.3875,1.3794,1.3793,1.3792,0,1.3426,1.348,1.3522,1.3537,1.3575,1.3595,1.3612,1.3641,1.3663,1.3694,1.3709,1.3746,1.3766,1.3795,1.3812,1.3797,1.3868,1.3851,1.3879,1.3878,1.3894,1.3893,1.396,1.3905,1.3905,1.3905,1.3905,0,1.3478,1.3515,1.3536,1.3563,1.3604,1.3617,1.3658,1.3675,1.3701,1.3732,1.3738,1.3767,1.3787,1.382,1.3833,1.3879,1.3888,1.3898,1.3902,1.3898,1.3897,1.3912,1.391,1.3907,1.3907,1.3906,1.3906,0,1.3521,1.3536,1.3583,1.3614,1.3623,1.3652,1.368,1.3707,1.3722,1.3761,1.3771,1.3796,1.3835,1.3854,1.3903,1.3912,1.3964,1.3965,1.3953,1.3955,1.3981,1.3979,1.4061,1.4073,1.401,1.401,1.4011,0,1.3554,1.3581,1.3615,1.3635,1.3652,1.3685,1.3707,1.3721,1.3744,1.3781,1.3804,1.3842,1.3874,1.3936,1.396,1.3998,1.4,1.4027,1.4006,1.4002,1.4002,1.4,1.4004,1.4031,1.4031,1.4032,1.4032,0,1.3611,1.3617,1.3648,1.3681,1.3707,1.3734,1.3761,1.3778,1.3797,1.3823,1.3861,1.3886,1.3935,1.3974,1.4013,1.4033,1.4037,1.4038,1.4047,1.4044,1.4036,1.4042,1.3964,1.4037,1.4036,1.4036,1.4036,1.4035,1.3651,1.3676,1.3703,1.3737,1.3759,1.3784,1.381,1.3828,1.386,1.39,1.3907,1.3949,1.398,1.4032,1.4053,1.4087,1.4082,1.4094,1.4097,1.41,1.4101,1.403,1.4094,1.4094,1.4094,1.4094,1.4094,0,1.3709,1.3727,1.3758,1.3795,1.3822,1.382,1.3851,1.3874,1.391,1.3937,1.3968,1.4013,1.4051,1.4077,1.4115,1.4138,1.414,1.4148,1.4147,1.4151,1.4104,1.4093,1.4145,1.4145,1.4145,1.4145,1.4145,1.4145,1.3743,1.3785,1.3795,1.3849,1.3867,1.3906,1.3923,1.3947,1.3969,1.4019,1.4049,1.4065,1.4093,1.4134,1.4169,1.4176,1.419,1.4197,1.4205,1.416,1.4155,1.415,1.4139,1.42,1.42,1.425,1.425,1.425]},{"header":{"parameterUnit":"m.s-1","parameterCategory":1,"la1":30.2991,"la2":30.254,"lo1":-89.0895,"lo2":-89.0444,"dy":0.0017,"dx":0.0017,"nx":28,"ny":28,"refTime":"2026-01-11T03:00:00:Z","depth":0,"parameterNumber":3,"parameterNumberName":"V-component_of_WINDS"},"data":[0,0,0,0,0,0,0,0,0,0,0,0,0,0,0,0,0,0,0,0,0,0,0,0,0,0,0,0,0,0,0,0,0,0,0,0,0,0,0,0,0,0,0,0,0,0,0,0,0,0,0,0,0,0,0,0,0,0,-2.5282,-2.528,0,-2.5021,-2.5018,-2.5015,-2.4981,-2.4984,-2.4986,-2.4989,-2.4711,-2.4702,-2.4692,0,0,0,0,0,0,0,0,0,0,0,0,0,-2.5744,-2.5736,-2.5283,-2.5279,-2.5276,-2.5022,-2.5018,-2.5015,-2.4981,-2.4984,-2.4987,-2.499,-2.4714,-2.4703,-2.4691,0,0,0,0,0,0,0,0,0,0,0,0,0,-2.5519,-2.5733,-2.5283,-2.5229,-2.5221,-2.5023,-2.5018,-2.5014,-2.498,-2.4984,-2.4988,-2.4991,-2.4718,-2.4704,-2.469,-2.4524,0,0,-2.4645,-2.4639,0,0,0,0,0,0,0,0,-2.5532,-2.5502,-2.524,-2.5232,-2.5224,-2.5038,-2.5079,-2.4849,-2.4979,-2.5071,-2.4989,-2.4993,-2.4816,-2.4794,-2.4736,-2.4511,-2.4499,-2.4644,-2.4635,-2.4629,-2.4624,0,0,0,0,0,0,0,-2.5548,-2.5513,-2.5179,-2.5236,-2.5226,-2.5215,-2.5187,-2.5035,-2.4925,-2.5064,-2.5061,-2.5031,-2.4812,-2.475,-2.4729,-2.4495,-2.4644,-2.4631,-2.4622,-2.4616,-2.4122,-2.4118,0,0,0,0,0,0,-2.5574,-2.5527,-2.5187,-2.5171,-2.5391,-2.5204,-2.5172,-2.5093,-2.4927,-2.4906,-2.5028,-2.503,-2.4773,-2.4746,-2.472,-2.4515,-2.4629,-2.4615,-2.4607,-2.4126,-2.4121,-2.4116,0,0,0,0,0,0,-2.5585,-2.5545,-2.5198,-2.5348,-2.5303,-2.5192,-2.5103,-2.5086,-2.5024,-2.49,-2.4879,-2.4985,-2.4775,-2.474,-2.4574,-2.4505,-2.4608,-2.4595,-2.4131,-2.4125,-2.4119,-2.4105,0,0,0,0,0,0,-2.5598,-2.5548,-2.5486,-2.5347,-2.5295,-2.5059,-2.5099,-2.5078,-2.5001,-2.5001,-2.4855,-2.4834,-2.4776,-2.4596,-2.4559,-2.4487,-2.4584,-2.4137,-2.4128,-2.4121,-2.4111,-2.4099,-2.4089,0,0,0,0,0,-2.5615,-2.549,-2.5483,-2.5442,-2.5215,-2.5055,-2.5025,-2.4963,-2.4995,-2.493,-2.4851,-2.4838,-2.4519,-2.4579,-2.4538,-2.446,-2.4141,-2.4131,-2.4121,-2.4116,-2.4101,-2.4089,0,0,0,0,0,0,-2.5619,-2.5471,-2.5461,-2.5289,-2.5185,-2.505,-2.4966,-2.4949,-2.4832,-2.4837,-2.4762,-2.4729,-2.4567,-2.4496,-2.4566,-2.4291,-2.4333,-2.4314,-2.4343,-2.4328,-2.4317,-2.4336,-2.4572,0,0,0,0,0,-2.5602,-2.5487,-2.5361,-2.5221,-2.517,-2.5077,-2.5005,-2.4967,-2.4855,-2.481,-2.4718,-2.4608,-2.4483,-2.4402,-2.4279,-2.4102,-2.4069,-2.4028,-2.4017,-2.4008,-2.3992,-2.3894,-2.3874,-2.4084,-2.4084,-2.4084,0,0,-2.5561,-2.5466,-2.5397,-2.522,-2.5135,-2.5016,-2.504,-2.4912,-2.4822,-2.4789,-2.4628,-2.4557,-2.4429,-2.4257,-2.4176,-2.4193,-2.3927,-2.3995,-2.3989,-2.3978,-2.3881,-2.3862,-2.3844,-2.4077,-2.4078,-2.4079,0,0,-2.5426,-2.5343,-2.5218,-2.5134,-2.5007,-2.4947,-2.4917,-2.4784,-2.4737,-2.4574,-2.4548,-2.4439,-2.4225,-2.4135,-2.4061,-2.3897,-2.388,-2.3859,-2.3798,-2.3703,-2.3687,-2.3672,-2.3613,-2.3593,-2.3844,-2.3843,-2.3843,0,-2.5391,-2.5213,-2.5155,-2.5028,-2.4951,-2.4921,-2.4793,-2.4712,-2.4551,-2.4497,-2.452,-2.4252,-2.4163,-2.3971,-2.3931,-2.3872,-2.3835,-2.3874,-2.3695,-2.3679,-2.3664,-2.3607,-2.3585,-2.3842,-2.3842,-2.3842,-2.3842,0,-2.5176,-2.5053,-2.4966,-2.4816,-2.4729,-2.4602,-2.4522,-2.4441,-2.4411,-2.4348,-2.4183,-2.4077,-2.3933,-2.3885,-2.3852,-2.3687,-2.3702,-2.371,-2.375,-2.3643,-2.3588,-2.3566,-2.3839,-2.384,-2.384,-2.3841,0,0,-2.5034,-2.4856,-2.4825,-2.4757,-2.4617,-2.4519,-2.439,-2.4254,-2.4186,-2.4075,-2.3965,-2.3787,-2.3795,-2.3711,-2.3669,-2.3586,-2.3463,-2.3604,-2.36,-2.3581,-2.3274,-2.3268,-2.3244,-2.3452,-2.3448,-2.3444,-2.3284,0,-2.4883,-2.4657,-2.4602,-2.4408,-2.4293,-2.4264,-2.4152,-2.4053,-2.3991,-2.3883,-2.3813,-2.3688,-2.3708,-2.3657,-2.3574,-2.3495,-2.34,-2.3506,-2.3347,-2.3342,-2.3379,-2.3215,-2.3207,-2.3061,-2.3263,-2.3259,-2.3256,0,-2.4676,-2.4567,-2.4362,-2.4239,-2.4188,-2.4089,-2.3961,-2.3858,-2.3744,-2.3705,-2.3614,-2.3581,-2.3445,-2.3493,-2.3304,-2.3378,-2.3309,-2.3261,-2.3254,-2.3235,-2.3292,-2.3191,-2.3013,-2.2991,-2.3222,-2.3225,-2.3227,0,-2.4594,-2.4394,-2.4247,-2.4189,-2.4041,-2.3972,-2.3907,-2.3798,-2.372,-2.3607,-2.3555,-2.3426,-2.3355,-2.3256,-2.3188,-2.323,-2.3004,-2.3047,-2.2966,-2.2968,-2.2918,-2.2922,-2.2726,-2.2876,-2.2876,-2.2877,-2.2877,0,-2.443,-2.4306,-2.4208,-2.4117,-2.3977,-2.3915,-2.3777,-2.371,-2.3614,-2.3508,-2.3474,-2.3375,-2.3292,-2.3181,-2.3127,-2.2979,-2.2947,-2.291,-2.2897,-2.2912,-2.2917,-2.2865,-2.2873,-2.2871,-2.2872,-2.2873,-2.2874,0,-2.4313,-2.4243,-2.408,-2.3955,-2.3921,-2.3823,-2.3715,-2.3624,-2.3563,-2.343,-2.3395,-2.3297,-2.3165,-2.3089,-2.2921,-2.2885,-2.272,-2.2711,-2.2759,-2.2753,-2.2677,-2.2685,-2.244,-2.2405,-2.2579,-2.2577,-2.2576,0,-2.4213,-2.4117,-2.3984,-2.3913,-2.3848,-2.3732,-2.3654,-2.3589,-2.3508,-2.3374,-2.3299,-2.3166,-2.3056,-2.2846,-2.2759,-2.2631,-2.2618,-2.2542,-2.2598,-2.2618,-2.2617,-2.2623,-2.2613,-2.2531,-2.253,-2.2529,-2.2528,0,-2.4043,-2.4014,-2.3904,-2.3782,-2.3691,-2.3591,-2.3491,-2.3434,-2.3352,-2.3263,-2.313,-2.3045,-2.2877,-2.2744,-2.261,-2.254,-2.2519,-2.2511,-2.2485,-2.25,-2.2531,-2.2513,-2.2732,-2.2516,-2.2517,-2.2518,-2.2519,-2.2519,-2.393,-2.3845,-2.3739,-2.3618,-2.3537,-2.3446,-2.3356,-2.3285,-2.3174,-2.3034,-2.3002,-2.2861,-2.2751,-2.2569,-2.2496,-2.2384,-2.2397,-2.236,-2.235,-2.2342,-2.234,-2.2551,-2.2359,-2.2359,-2.236,-2.236,-2.236,0,-2.3758,-2.369,-2.3579,-2.3444,-2.3348,-2.3342,-2.3232,-2.3152,-2.3031,-2.2931,-2.2825,-2.2672,-2.2545,-2.2449,-2.2318,-2.2247,-2.2234,-2.2215,-2.2219,-2.2203,-2.2336,-2.2371,-2.2227,-2.2227,-2.2227,-2.2228,-2.2228,-2.2228,-2.3657,-2.3513,-2.3472,-2.3287,-2.3218,-2.3083,-2.3021,-2.2936,-2.2857,-2.2689,-2.2585,-2.2525,-2.2426,-2.2289,-2.2171,-2.2146,-2.2099,-2.2081,-2.2054,-2.2179,-2.2193,-2.2207,-2.224,-2.2071,-2.2071,-2.193,-2.1929,-2.1928]}]]